Regional Weather Roundup
Issued by NWS

Home | Current Version | Previous Version | Text Only | Print | Product List | Glossary Off
Versions: 1 2 3 4 5 6 7 8 9 10 11 12 13 14 15 16 17 18 19 20 21 22 23 24 25 26 27

000
ASUS45 KCYS 200810
RWRWY

WYOMING REGIONAL WEATHER ROUNDUP
NATIONAL WEATHER SERVICE CHEYENNE WY
200 AM MDT THU JUL 20 2017

NOTE:  "FAIR" INDICATES FEW OR NO CLOUDS BELOW 12,000 FEET
WITH NO SIGNIFICANT WEATHER AND/OR OBSTRUCTIONS TO VISIBILITY.

WYZ001-200900-
YELLOWSTONE NATIONAL PARK

CITY           SKY/WX    TMP DP  RH WIND       PRES   REMARKS
LK YELLOWSTONE   N/A     45  38  76 NW3       30.32F
W YELLOWSTONE  NOT AVBL

$$
WYZ002>013-054>058-071-098>099-200900-
NORTHERN WYOMING

CITY           SKY/WX    TMP DP  RH WIND       PRES   REMARKS
JACKSON        FAIR      52  39  62 N9        30.22S
CODY           FAIR      65  43  44 S8        30.08F
GREYBULL       FAIR      78  51  38 CALM      30.01S
WORLAND        FAIR      75  55  49 SE14      30.02F
SHERIDAN       FAIR      72  49  44 NW7       30.02F
BUFFALO        FAIR      67  47  48 SE5       30.11F
GILLETTE       FAIR      73  55  53 S13       30.09F
HULETT         FAIR      72  52  49 SE5       30.12F
NEWCASTLE      FAIR      73  48  40 SE10      30.13F

$$
WYZ014>020-022>026-101>103-200900-
CENTRAL WYOMING

CITY           SKY/WX    TMP DP  RH WIND       PRES   REMARKS
BIG PINEY      FAIR      61  49  64 S8        30.31S
PINEDALE       FAIR      57  50  77 E6        30.34S
DUBOIS         FAIR      54  32  43 CALM      30.28R
LANDER         FAIR      68  53  58 NW7       30.14R
RIVERTON       FAIR      69  51  52 SW12      30.11S
CASPER         FAIR      71  52  50 SW6       30.17S
DOUGLAS        FAIR      68  57  68 SE8       30.16F

$$
WYZ021-027>030-104>119-200900-
SOUTHERN WYOMING

CITY           SKY/WX    TMP DP  RH WIND       PRES   REMARKS
EVANSTON       FAIR      63  49  60 SW5       30.28F
KEMMERER         N/A     61  46  59 CALM      30.30F
FORT BRIDGER   FAIR      61  48  62 W9        30.30F
ROCK SPRINGS   FAIR      64  51  62 SE10      30.27F
RAWLINS        FAIR      60  53  77 NE6       30.29F
SARATOGA       FAIR      59  59 100 S8        30.31F
LARAMIE        CLOUDY    61  55  81 SE7       30.34F
CHEYENNE       FAIR      64  56  75 N7        30.27F
TORRINGTON     FAIR      67  63  87 NW13      30.14R
PINE BLUFFS    FAIR      64  61  88 NW12      30.20F

$$




USA.gov is the U.S. government's official web portal to all federal, state and local government web resources and services.